Theta_e
326 325 328 329 329 328 326 327 328 331 332 332 331 331 334 333 333 331 332 332 330 329 328 329 331 330 332 334 338 338 336 335 334 331 329 331 329 330 334 333 331 333 334 331 326 320 317 312 311 317 319 322 322 321 321 321 322 322 323 323 323 323 324
328 328 327 327 327 328 327 327 327 327 331 332 331 332 332 330 331 330 331 331 330 329 327 328 331 331 333 334 336 336 334 333 332 333 331 329 331 330 331 331 330 328 327 329 330 326 318 313 311 312 314 318 320 319 320 321 321 323 322 321 321 322 324
327 327 327 326 327 328 326 327 326 326 327 330 332 331 331 329 330 330 330 331 331 329 328 331 331 331 332 333 334 335 334 333 333 332 331 331 332 332 331 330 328 326 326 325 324 322 318 318 313 310 314 314 313 315 318 318 319 319 320 321 322 320 322
328 327 325 325 324 325 325 326 325 325 327 328 329 330 330 329 330 331 331 329 330 330 328 328 330 329 332 335 337 336 335 333 333 334 333 333 332 331 330 328 326 322 320 318 319 318 316 315 314 313 314 313 313 313 315 316 316 316 316 317 317 318 319
330 327 325 323 323 322 323 323 323 325 326 327 328 326 328 329 329 330 331 329 328 329 328 329 330 331 332 333 336 335 334 334 334 333 333 333 332 330 328 325 324 324 322 320 318 317 316 315 316 314 312 312 312 313 314 316 315 315 314 314 315 316 317
328 327 325 324 323 321 321 321 323 322 324 324 324 325 327 328 328 328 328 327 327 329 329 328 329 330 331 332 335 335 335 334 334 334 332 330 327 324 322 321 316 316 316 316 317 316 316 317 317 312 312 312 310 311 313 313 311 312 312 311 313 314 315
328 327 325 323 323 322 321 322 322 323 323 324 324 325 325 326 327 328 329 329 329 329 328 329 329 327 327 325 329 330 330 330 330 329 327 327 326 323 321 316 316 314 315 316 316 316 315 315 314 314 313 314 312 309 311 312 312 309 308 309 310 313 314
327 326 324 325 324 323 322 323 324 324 323 323 322 325 326 327 328 327 327 326 327 328 328 327 327 327 327 325 325 327 326 325 323 323 323 323 321 319 320 316 315 315 314 315 314 313 314 316 316 316 314 310 310 310 309 310 311 309 306 307 309 310 313
328 327 325 326 326 326 324 322 324 325 324 323 325 325 327 327 325 324 324 324 325 326 326 325 324 323 324 322 321 323 322 321 322 321 320 320 321 320 319 317 316 315 318 316 317 316 315 317 318 318 316 313 309 306 308 307 308 306 309 307 307 308 310
327 325 324 325 326 327 326 325 322 323 324 324 324 325 325 325 325 324 322 322 323 323 323 322 321 320 320 320 320 319 320 320 319 318 318 318 319 318 319 319 317 317 317 319 317 317 317 317 318 318 316 314 314 309 307 306 307 306 306 307 305 306 309
326 327 326 326 327 325 324 323 327 322 321 323 323 323 323 323 322 321 319 319 321 321 321 319 318 318 319 317 318 317 316 317 316 317 316 316 317 318 319 318 318 316 319 319 318 320 319 318 315 315 315 316 315 311 310 308 308 310 307 308 308 305 307
326 326 327 327 326 325 323 320 321 323 323 322 322 323 322 320 320 319 318 317 318 319 319 318 318 317 317 315 315 314 316 316 315 316 317 317 317 319 319 318 319 317 319 319 319 320 320 318 317 316 316 318 318 318 315 312 308 309 312 308 306 307 306
323 323 325 326 326 325 322 320 320 322 322 321 321 321 320 319 319 318 317 317 315 315 315 316 317 317 317 316 315 314 316 316 314 314 315 317 315 318 318 318 317 317 318 317 318 319 318 320 320 317 318 318 317 318 317 314 311 308 310 309 307 306 306
323 322 325 328 325 325 324 322 321 321 321 322 322 320 319 319 318 319 318 317 316 316 316 317 317 317 316 316 316 316 316 315 314 314 315 316 316 317 316 316 316 316 318 317 317 318 317 318 319 318 318 317 316 317 316 314 310 308 309 312 309 306 307
323 323 324 326 326 326 325 324 324 324 323 323 323 318 318 320 320 319 318 318 319 318 317 317 319 319 316 316 317 317 317 315 314 314 315 313 315 316 317 314 313 315 316 314 316 314 315 315 315 315 315 316 314 315 317 314 312 310 308 309 307 307 307
324 324 323 325 327 326 326 327 325 324 322 322 322 322 319 320 320 319 319 319 319 319 318 317 319 320 320 319 317 318 318 317 317 316 315 314 312 314 315 315 314 315 316 316 316 316 316 314 314 313 314 314 314 314 313 314 314 312 310 308 310 307 308
326 325 324 324 326 328 327 327 325 325 323 323 320 323 323 319 319 319 318 318 319 319 319 319 319 318 317 318 319 319 319 319 318 318 317 316 314 315 315 315 315 316 315 316 316 315 315 315 315 314 314 315 314 312 316 317 317 314 311 308 309 307 308
326 326 325 324 327 328 328 327 326 325 325 324 322 322 322 321 320 319 319 317 316 317 318 319 319 319 319 319 318 319 319 319 320 319 319 319 317 318 317 317 317 316 316 316 317 316 316 315 314 315 315 313 312 313 315 315 315 314 313 310 310 310 311
325 326 326 326 329 329 328 327 327 326 325 324 324 323 321 321 319 319 318 317 317 317 319 319 319 320 321 322 323 323 322 321 320 319 320 320 319 319 319 318 318 318 317 317 317 317 318 316 314 315 314 313 312 313 315 315 316 315 313 311 312 310 311
325 326 327 327 327 327 326 327 326 326 325 325 325 324 323 321 321 320 319 319 319 319 320 321 323 324 324 325 325 324 325 324 322 322 321 320 320 320 320 320 320 320 319 319 318 318 319 317 316 315 315 314 312 312 313 314 314 314 314 313 313 313 312
326 325 326 326 326 327 326 326 326 326 326 325 325 324 324 322 322 321 322 321 322 324 324 323 322 322 323 324 324 324 324 324 325 325 324 323 322 321 321 321 321 320 320 320 320 320 320 318 317 316 315 315 313 312 312 312 313 313 313 314 313 312 313
326 326 325 326 326 326 326 327 326 325 325 325 326 325 325 324 323 322 323 324 324 323 322 322 321 322 322 322 322 322 323 323 323 323 324 324 324 323 323 322 321 322 322 318 309 310 309 309 320 317 317 316 314 312 312 312 312 312 313 313 312 313 312
327 326 325 325 325 326 324 325 325 324 324 323 325 325 325 324 323 324 323 323 323 323 323 322 315 306 310 320 321 319 321 322 322 323 323 322 321 322 322 323 324 318 312 309 307 303 301 300 302 314 319 318 313 312 312 311 311 311 312 311 310 311 310
327 327 326 326 324 324 324 326 325 324 323 323 324 324 324 323 323 322 322 323 323 322 320 320 302 300 301 303 316 321 322 322 321 321 321 318 321 322 324 324 327 319 314 310 311 300 298 298 298 297 296 298 304 319 313 310 310 311 310 310 311 311 309
324 325 326 325 325 325 325 325 325 324 324 324 323 325 324 323 322 322 322 321 323 324 322 309 299 300 299 299 305 320 322 320 319 319 319 319 318 318 319 321 323 324 325 326 323 319 306 297 295 296 295 296 292 290 293 312 313 311 310 309 309 310 309
322 322 323 323 324 324 323 324 324 324 325 325 325 323 322 322 321 321 320 319 319 321 322 304 299 298 298 297 297 309 320 320 318 317 317 319 319 319 319 320 320 322 320 309 314 320 322 316 296 293 294 293 293 292 291 290 293 307 313 310 309 308 309
321 322 323 323 322 322 322 322 323 324 325 325 324 322 322 321 321 320 319 319 320 322 322 305 299 298 298 297 295 302 320 318 319 319 320 319 320 320 319 319 319 320 320 319 320 320 320 320 312 308 306 305 306 303 293 293 294 294 301 310 310 308 311
320 321 322 322 322 321 321 322 322 323 323 323 322 321 321 320 320 320 320 321 321 321 323 300 297 297 298 297 293 298 318 320 319 319 319 319 319 319 318 319 318 317 315 312 308 306 315 316 313 311 309 308 308 308 311 310 311 312 309 310 309 310 310
314 317 320 321 321 320 320 321 322 324 323 322 322 322 321 321 320 320 321 323 322 321 327 296 297 297 296 294 293 314 319 318 316 316 317 318 317 318 318 318 317 316 314 309 298 291 298 313 313 310 308 309 308 305 301 295 292 294 304 308 309 309 309
311 313 314 318 319 321 321 321 322 324 323 322 321 320 321 321 322 322 322 322 322 321 323 302 296 295 294 293 302 316 317 315 315 315 315 316 315 315 314 314 315 314 311 307 294 292 293 297 312 310 309 308 307 306 303 300 293 291 290 290 289 289 289
310 311 312 313 316 319 321 323 323 323 322 321 320 321 322 321 322 322 322 320 321 321 318 301 293 295 294 297 306 316 315 314 314 314 314 314 314 311 305 296 307 314 310 306 291 293 292 305 311 310 309 308 307 306 305 304 302 299 290 290 289 289 289
309 310 310 312 315 315 318 322 323 324 322 322 321 321 321 321 321 321 321 320 309 316 315 301 293 294 295 297 309 316 314 313 312 312 312 311 311 310 306 301 294 301 305 299 289 292 291 301 312 310 310 308 307 307 306 306 305 304 304 304 302 301 300
309 309 310 311 313 315 316 318 320 322 323 322 320 320 320 320 320 319 320 319 319 316 310 304 300 293 296 296 298 317 314 312 311 311 311 309 309 308 306 303 297 289 289 289 290 290 291 292 310 311 311 310 308 306 306 306 305 306 305 303 304 304 303
308 309 309 310 312 313 314 316 318 320 320 320 319 318 318 318 319 319 319 319 318 317 313 309 303 293 294 295 294 298 315 313 313 311 309 308 308 308 306 304 302 291 289 289 290 290 291 291 294 309 309 307 304 301 300 305 299 292 302 303 302 301 302
308 308 309 309 311 312 314 315 316 319 319 319 318 317 316 317 317 317 317 318 318 317 313 308 311 295 293 294 294 294 312 314 312 311 309 308 308 308 306 304 301 293 288 289 290 290 290 292 293 301 297 289 289 291 302 302 303 303 302 302 301 300 301
306 307 308 309 308 309 311 314 314 317 318 319 318 317 314 312 310 308 308 310 315 315 314 311 302 305 293 293 293 293 297 308 297 311 310 308 308 307 306 303 297 289 289 289 290 290 290 290 293 295 288 288 289 286 292 302 300 301 300 300 300 299 299
305 306 306 307 308 308 309 311 312 313 315 316 316 316 314 313 313 310 307 305 305 310 312 310 298 297 297 290 291 293 295 296 299 310 311 309 308 306 304 302 295 288 289 289 288 289 289 291 293 287 288 287 288 289 300 301 301 301 297 297 298 298 299
Wind_Speed
4 6 5 4 3 3 4 5 5 5 4 5 6 6 6 6 4 4 2 1 1 2 3 3 3 2 2 3 3 3 4 4 5 4 5 5 6 5 4 4 3 3 3 1 1 6 6 6 6 6 7 7 6 6 6 6 6 6 5 5 6 6 6
6 6 6 5 4 4 5 4 4 5 5 4 5 6 5 5 4 3 3 3 2 2 2 3 3 4 3 4 5 4 4 3 3 2 4 5 4 4 5 4 4 4 4 3 1 3 5 7 7 7 7 7 6 6 5 5 6 5 5 5 5 6 6
5 5 5 5 5 5 5 5 4 4 5 5 4 5 5 5 4 4 4 5 4 3 3 3 3 4 4 4 4 3 3 3 3 3 3 3 3 5 5 5 5 5 5 5 5 4 5 5 6 7 7 7 7 5 4 5 6 5 6 5 5 6 6
7 6 6 6 5 5 5 5 4 4 4 5 5 5 5 5 5 5 5 5 4 4 3 3 3 3 3 3 4 4 3 3 3 3 3 2 3 4 5 4 4 4 4 5 5 4 4 5 7 7 7 7 8 7 5 5 5 6 6 5 6 6 5
6 6 7 7 6 6 5 5 5 5 5 5 5 5 5 5 5 5 5 5 4 3 4 3 3 4 3 3 4 4 4 3 4 3 4 4 4 4 3 3 2 2 3 3 3 3 3 5 5 7 7 7 7 6 6 5 5 6 6 6 6 6 6
4 4 6 6 6 6 5 5 6 6 6 6 5 6 5 5 5 5 4 4 4 4 4 4 4 4 4 4 5 5 5 5 4 4 4 5 5 4 3 2 2 3 2 3 2 2 2 4 5 6 6 5 5 6 6 5 5 5 5 6 6 6 6
4 3 4 5 5 5 5 5 5 6 6 6 6 6 5 5 5 6 6 6 5 5 5 5 5 4 4 4 5 6 7 5 5 5 5 5 4 4 2 3 3 4 4 3 3 2 4 5 5 5 6 5 5 5 5 4 4 4 5 6 6 6 6
5 4 4 5 6 6 5 5 5 5 6 6 6 6 6 6 6 6 6 6 6 5 5 5 4 5 3 4 5 5 5 4 5 4 4 4 3 4 4 4 4 4 3 3 2 3 4 3 4 5 5 6 5 3 4 4 5 5 5 5 5 6 5
4 4 4 4 5 6 6 6 5 4 5 6 6 6 5 5 6 6 6 6 6 6 5 5 4 4 4 4 5 5 5 3 4 4 4 4 4 5 4 4 4 5 4 4 4 3 3 3 4 5 4 4 5 5 4 4 3 4 3 4 6 5 5
5 6 6 6 6 6 6 5 4 5 5 5 5 5 5 5 5 6 6 6 6 5 5 4 4 4 4 4 5 5 4 3 3 4 3 4 4 3 4 4 5 5 5 5 5 5 4 3 4 3 3 3 2 4 5 5 4 3 4 4 3 5 4
6 6 6 7 5 6 6 5 2 4 5 5 4 4 5 6 6 6 6 6 5 5 5 4 5 5 4 5 5 4 4 4 4 4 4 4 3 4 4 4 4 5 4 5 5 5 4 4 3 3 1 2 2 2 3 4 5 3 4 3 3 4 3
7 7 7 7 5 4 6 7 1 2 4 5 5 5 5 6 5 6 6 6 6 6 5 5 5 5 5 5 5 5 4 4 4 4 4 4 4 4 4 4 4 5 4 4 4 4 4 4 4 4 4 3 4 3 4 5 5 3 2 4 3 3 3
7 7 6 7 5 4 5 8 6 4 2 2 5 5 5 6 6 6 6 6 6 6 6 5 5 5 5 5 5 5 5 5 5 5 5 4 4 4 4 4 4 4 3 3 3 3 3 3 3 4 4 4 4 3 1 2 5 6 2 3 3 3 3
9 7 6 5 5 3 5 7 6 6 6 4 5 6 6 6 7 6 7 6 7 6 6 5 5 4 5 5 4 5 5 4 5 5 4 4 4 4 4 4 4 3 1 1 3 3 3 3 3 2 3 3 3 2 2 4 5 6 4 1 2 2 2
8 7 7 5 5 4 5 5 5 5 5 5 4 5 6 5 5 6 6 6 6 6 6 6 5 4 5 5 5 3 3 4 4 5 4 4 4 2 2 3 4 3 1 2 1 3 4 3 4 4 4 2 3 3 0 2 4 4 5 4 3 3 3
9 9 8 6 5 5 5 5 6 5 5 4 4 3 5 6 6 5 5 5 6 5 6 6 4 4 4 4 5 4 3 3 3 4 4 4 5 4 3 2 3 3 1 1 1 1 1 2 2 3 2 2 2 2 2 1 2 4 4 4 4 4 3
10 9 9 7 6 5 5 5 5 5 6 5 6 5 5 7 7 6 6 5 5 5 5 5 5 4 4 3 3 4 3 3 2 2 2 3 4 4 4 3 3 3 3 2 2 2 2 1 2 2 3 3 3 2 2 1 1 2 3 4 4 3 4
10 10 9 8 6 5 4 4 4 5 5 6 6 6 6 6 7 8 7 7 7 6 6 6 6 5 4 4 4 3 3 3 2 3 3 2 2 3 4 4 3 4 4 3 3 3 2 2 3 2 2 2 3 3 2 2 1 2 3 3 3 1 2
9 9 9 8 7 5 4 4 4 4 5 5 6 6 7 7 7 8 8 8 8 7 7 6 6 5 5 5 4 3 2 2 3 3 4 4 4 4 4 5 5 5 5 5 4 3 3 4 3 3 2 3 2 3 2 2 2 1 1 3 3 3 2
8 8 8 8 6 5 5 6 7 6 6 6 6 7 8 8 8 8 8 8 8 8 8 7 6 5 4 3 2 2 1 2 2 3 3 5 5 5 6 6 6 6 6 6 6 6 5 5 4 4 4 3 3 2 3 3 3 3 3 2 2 2 3
8 8 7 7 7 6 6 6 6 6 6 6 6 7 8 9 9 9 9 9 9 8 8 7 6 5 3 2 2 2 2 2 2 3 4 5 5 5 6 7 7 8 7 7 7 7 7 7 5 6 6 4 4 4 4 4 4 4 4 4 5 3 3
7 8 8 8 7 7 7 6 6 7 7 7 6 6 7 8 9 9 9 9 10 8 8 6 4 3 2 2 3 4 5 5 5 5 5 6 6 6 6 6 7 8 6 2 5 5 6 5 5 7 6 6 6 5 5 5 5 6 6 6 5 4 5
6 7 8 8 7 7 7 8 7 7 7 7 7 7 8 8 9 10 11 10 9 8 6 5 8 10 3 2 3 3 4 5 6 6 6 8 8 6 6 5 5 3 5 2 3 4 5 6 7 7 6 5 6 6 6 6 6 5 6 6 7 5 6
6 6 7 7 8 7 8 8 8 8 9 9 9 9 10 11 11 11 11 10 10 7 6 6 12 12 13 7 2 2 3 4 5 6 6 8 7 6 6 5 4 8 6 5 7 8 7 6 7 9 6 10 6 2 6 7 6 6 5 5 6 5 5
5 5 6 6 7 7 9 10 9 9 9 10 9 9 10 11 11 11 10 10 9 7 7 8 13 13 13 15 12 5 2 2 4 5 6 6 6 6 5 4 4 3 3 2 2 6 8 9 8 3 1 3 6 8 8 4 4 5 4 6 5 5 4
4 5 5 6 6 7 9 10 10 10 10 10 10 11 11 11 11 10 9 10 9 8 8 13 13 12 11 12 11 6 4 4 5 6 5 5 4 4 4 3 3 2 2 4 5 4 3 6 6 6 7 9 9 8 8 7 7 5 5 4 5 5 4
5 5 5 5 6 7 9 10 9 9 9 9 10 11 12 12 11 11 11 12 11 9 10 13 17 14 12 12 10 7 6 6 6 4 3 2 1 0 1 1 1 1 2 1 2 1 1 3 5 5 6 6 5 6 6 7 5 4 4 4 3 5 2
4 5 5 6 6 7 8 9 10 9 8 9 10 11 12 12 11 12 11 11 11 11 8 13 13 14 14 13 12 7 7 6 6 5 4 3 2 2 2 2 1 2 3 4 4 6 2 2 3 4 6 7 6 6 4 4 3 2 1 1 2 2 1
4 5 6 6 7 8 8 9 9 8 8 8 9 9 10 11 12 11 12 11 10 11 6 15 14 15 13 13 13 8 8 7 6 6 5 4 3 3 2 2 2 3 4 5 5 6 6 1 5 5 7 7 6 6 7 5 6 8 7 5 4 4 4
5 5 5 7 7 8 9 9 8 8 8 8 9 10 10 11 10 11 12 11 8 10 6 13 15 14 13 15 12 9 9 8 7 6 5 5 4 4 4 4 2 3 5 5 3 4 4 6 6 6 6 6 5 5 6 5 6 7 8 9 8 8 8
7 6 5 5 7 8 8 8 8 7 8 9 10 10 10 10 9 7 6 6 5 4 2 8 12 13 14 15 12 10 9 8 8 6 6 4 4 5 7 10 9 3 5 5 2 3 5 5 4 5 5 6 5 5 5 4 4 4 5 5 5 5 4
8 8 7 7 5 7 8 9 8 8 8 9 10 9 9 10 9 7 5 4 8 5 5 5 5 12 15 16 10 9 8 8 7 7 7 6 6 5 6 8 11 9 7 5 5 6 8 6 3 2 3 3 4 4 4 4 4 4 5 5 5 5 5
8 9 9 8 7 6 5 7 9 10 9 9 9 9 9 10 10 8 6 6 4 7 9 10 8 9 12 12 14 7 9 8 8 8 7 7 6 6 7 6 7 8 9 9 9 10 10 11 3 3 2 3 4 3 4 3 4 3 1 3 3 3 5
9 9 9 9 8 7 5 5 5 7 8 8 8 7 9 9 9 9 10 11 11 10 8 11 11 13 13 15 14 8 8 7 8 7 7 7 7 7 7 6 6 6 8 10 11 11 12 12 10 4 5 6 7 7 4 2 4 2 4 4 5 6 6
9 8 8 8 8 8 7 5 4 5 7 8 9 9 5 6 7 5 2 7 9 9 8 13 11 9 14 15 13 10 5 9 7 8 7 7 7 7 7 7 7 6 8 11 11 12 12 12 11 7 8 8 8 8 2 2 2 3 4 4 5 5 5
9 7 7 8 9 9 8 7 5 5 6 7 9 8 7 7 5 4 5 5 2 6 9 10 15 14 13 12 10 3 4 6 4 6 6 7 7 7 7 8 8 7 10 11 11 11 11 11 10 8 8 8 6 2 6 2 2 4 4 4 5 6 6
9 9 9 9 9 9 9 7 6 6 6 6 6 7 9 10 8 6 7 6 4 3 2 3 5 9 10 8 6 5 9 10 3 2 6 6 7 8 8 8 8 10 11 11 11 11 11 10 8 7 6 4 2 5 3 2 3 3 4 5 5 5 5
Wind_Direction
125 131 136 123 113 123 122 129 131 126 129 126 131 124 124 120 118 120 113 101 159 142 166 162 161 166 158 131 156 164 159 179 191 195 181 177 202 171 192 199 193 176 183 273 214 165 141 135 118 90 82 77 77 70 67 73 78 83 73 58 76 76 61
131 141 142 139 134 125 126 124 113 110 99 96 112 117 113 112 116 117 117 118 116 126 138 136 137 132 139 142 154 163 172 166 198 173 185 191 203 155 172 174 174 175 166 186 254 194 160 145 127 119 113 103 93 78 73 73 82 80 64 61 64 74 76
145 145 151 142 141 146 131 129 130 129 121 117 106 101 96 88 82 90 110 100 98 80 71 86 104 123 140 139 130 148 153 155 142 163 186 187 169 159 176 158 174 167 168 164 186 183 156 137 139 139 136 134 112 89 85 97 93 82 82 73 61 60 61
155 156 148 152 146 151 143 140 135 125 122 115 114 99 83 85 82 84 95 95 89 81 92 110 104 116 127 123 121 122 135 131 133 128 137 158 151 159 169 174 162 161 164 161 163 167 153 146 138 140 142 120 115 111 84 67 73 80 87 82 71 61 69
166 165 155 150 151 141 137 135 132 135 129 121 116 107 95 91 95 93 92 96 85 83 88 85 96 108 106 112 118 131 123 121 120 137 140 143 152 141 127 130 125 101 155 182 155 154 174 145 153 144 139 136 130 114 115 102 84 78 58 57 66 73 63
179 172 152 145 141 137 136 134 136 131 133 126 113 106 97 101 106 108 107 101 101 84 78 89 87 78 82 98 109 119 124 135 136 136 133 129 136 133 114 88 107 119 99 44 96 159 145 141 154 154 138 144 123 130 135 139 106 73 62 65 56 48 62
154 165 153 142 135 127 127 130 133 129 120 113 106 98 104 104 92 87 84 82 80 87 86 77 68 74 84 107 105 104 107 108 109 114 117 113 98 92 106 110 80 84 66 73 87 129 150 167 163 156 142 125 147 142 144 148 136 118 84 64 57 57 55
155 154 154 139 131 122 116 117 119 122 117 110 105 101 99 101 100 92 87 87 83 81 82 83 85 84 64 85 102 91 92 97 96 97 97 100 100 94 80 90 104 94 98 101 106 123 152 159 154 149 155 142 148 135 122 104 98 70 97 67 48 70 62
142 137 139 144 130 122 118 116 110 109 106 104 98 101 98 101 101 105 100 92 92 93 93 91 84 79 73 89 95 88 90 88 100 104 108 98 89 90 98 103 107 98 100 102 104 73 82 118 130 148 157 156 152 141 143 115 96 81 31 90 85 52 74
143 155 161 156 145 129 121 110 117 109 110 103 98 93 99 95 93 90 94 97 98 99 97 92 90 93 99 97 98 99 94 93 95 88 83 102 106 109 96 99 102 109 95 85 86 99 100 115 126 160 199 176 168 141 156 132 108 101 78 13 72 79 64
156 167 163 154 159 148 127 103 96 135 120 112 111 106 103 101 99 99 99 99 97 98 99 97 96 103 111 101 100 102 93 101 109 105 103 104 103 107 111 106 103 97 85 93 89 91 102 107 132 139 112 109 258 162 137 128 107 74 102 66 35 80 74
168 178 168 149 164 185 129 108 78 81 111 131 127 125 122 116 114 106 107 106 106 107 106 104 112 110 105 106 108 107 111 113 105 105 101 99 104 111 104 96 96 93 90 90 100 100 105 119 117 117 97 76 59 58 107 123 133 77 7 93 74 44 60
174 181 164 154 167 197 136 125 150 125 146 146 139 140 133 127 128 127 121 118 121 122 121 120 122 121 122 117 125 123 120 128 120 118 123 128 125 121 120 114 100 99 108 130 111 100 94 80 77 101 105 99 90 70 107 118 109 118 80 89 103 117 115
180 176 160 147 162 166 132 139 165 158 162 184 164 154 145 145 142 143 139 138 132 131 126 125 123 128 124 126 119 120 139 136 131 122 120 124 124 142 142 126 124 116 114 90 117 137 128 119 126 120 113 122 112 111 102 113 124 122 124 145 159 101 89
185 186 168 157 164 166 141 142 149 155 170 172 181 160 153 148 151 154 149 144 141 135 138 130 136 131 128 124 118 130 139 144 124 120 139 139 129 120 137 153 133 134 143 126 163 176 143 170 161 161 150 147 121 113 25 132 133 144 137 167 160 152 133
190 190 180 180 182 172 153 146 150 155 180 175 178 177 157 157 158 154 148 148 143 142 143 140 139 137 127 141 138 137 145 131 137 140 157 155 162 144 171 160 159 152 169 169 216 24 82 211 219 107 93 108 105 128 132 97 154 135 157 148 171 172 145
195 191 191 194 188 180 170 157 151 171 181 182 178 177 168 167 160 159 155 153 150 156 153 152 157 159 148 141 155 147 157 162 170 176 172 177 162 165 178 182 175 177 184 197 217 155 205 155 256 123 164 136 150 138 104 155 257 126 154 156 187 199 153
198 201 206 204 197 187 179 170 167 185 182 188 186 178 177 176 170 171 166 169 166 167 165 160 156 158 157 172 170 170 185 181 194 207 216 214 208 213 192 206 198 187 192 214 199 216 186 218 234 158 201 167 176 144 179 232 137 169 166 156 147 143 186
204 209 209 197 191 185 194 204 193 199 197 193 187 190 190 186 186 177 177 174 169 166 160 160 160 152 149 161 165 164 175 188 204 213 207 228 222 214 227 225 215 209 205 215 218 213 216 209 233 237 216 248 173 155 207 183 221 174 202 157 172 167 216
211 209 210 204 195 192 196 204 209 207 198 199 190 195 195 190 187 184 178 172 167 162 154 147 135 136 149 141 140 145 172 196 219 223 233 227 228 231 229 229 230 224 221 220 223 221 211 218 217 240 230 218 253 169 204 231 222 203 216 199 202 234 191
223 219 215 209 199 198 198 198 209 206 204 202 205 208 198 193 184 185 171 173 162 150 148 149 144 142 133 114 88 37 19 339 314 269 251 252 247 243 241 244 243 243 239 233 235 236 222 217 211 222 220 209 230 204 223 225 250 259 250 260 282 267 275
225 220 217 215 210 207 200 198 201 207 203 201 200 212 206 195 181 178 172 165 155 156 157 142 138 131 107 101 49 26 11 353 327 304 289 265 246 246 253 254 253 249 247 282 18 4 0 350 247 229 218 200 210 211 236 236 231 244 265 271 270 264 273
227 227 226 227 223 208 208 203 204 210 209 209 194 195 191 187 184 178 176 167 166 168 162 161 138 124 89 60 21 12 352 333 323 313 310 300 283 268 262 256 245 135 83 137 255 274 271 287 307 300 310 223 196 222 232 241 245 247 263 266 271 287 287
248 242 239 234 238 234 238 222 205 207 211 209 196 191 192 185 186 187 185 174 172 167 161 162 157 148 139 133 205 273 301 304 304 296 281 272 280 287 276 262 254 141 168 186 218 218 232 233 244 270 314 342 353 278 238 234 243 259 264 265 282 274 274
262 264 261 245 235 224 232 237 229 216 200 190 194 190 194 196 193 192 192 192 184 176 181 178 182 175 172 168 175 194 217 244 274 280 283 286 279 276 280 282 276 268 257 14 307 190 200 213 222 218 106 56 60 47 43 14 275 237 243 266 268 267 278
260 260 250 256 260 258 249 243 240 234 217 198 178 191 205 202 199 202 207 216 220 211 221 176 195 202 187 172 166 177 219 232 236 245 258 261 286 299 303 299 286 273 99 130 226 244 222 173 131 98 109 97 76 69 64 48 37 11 330 278 280 287 268
256 256 267 261 247 244 246 247 250 243 232 216 203 197 199 198 201 206 211 222 223 221 224 179 195 196 180 175 165 184 217 215 224 225 203 209 198 324 21 326 301 131 70 63 30 13 250 150 143 153 160 175 155 113 111 105 82 61 0 318 320 297 16
286 278 258 252 249 247 243 246 245 242 233 222 217 208 205 205 213 225 222 220 227 228 222 160 178 173 176 174 169 175 212 196 192 172 165 151 150 129 117 118 104 81 79 48 34 351 333 143 147 156 168 170 162 161 103 66 42 19 50 322 315 335 31
330 293 280 260 255 249 243 241 242 239 237 228 226 226 223 224 224 228 230 225 221 228 183 161 167 173 172 171 159 188 189 172 169 162 151 143 133 115 95 85 102 96 81 77 43 358 345 348 152 153 146 135 123 98 73 58 36 34 31 29 29 26 47
350 327 303 285 266 257 251 240 237 236 234 231 231 231 230 227 226 224 228 230 232 230 172 166 165 171 170 166 166 185 167 170 155 150 134 128 120 81 50 17 55 95 96 82 28 350 7 322 137 144 143 147 140 128 118 110 74 56 60 65 67 68 65
340 341 315 295 283 270 260 250 239 233 235 228 230 235 234 234 232 226 226 226 219 281 149 155 167 166 174 166 185 176 170 162 148 144 138 132 113 89 57 29 355 91 97 96 68 23 352 309 139 138 148 152 153 145 135 142 145 105 100 102 99 102 113
331 329 327 315 301 286 266 254 245 232 228 233 240 244 243 242 233 222 218 201 102 162 142 118 178 186 170 170 203 183 171 152 157 153 150 139 127 112 93 61 38 42 68 82 63 48 10 335 139 152 156 187 183 175 140 156 166 174 180 189 177 185 190
328 328 321 321 307 292 280 266 252 244 233 232 240 243 240 240 233 217 199 185 174 165 141 152 165 234 172 186 218 213 163 162 164 158 160 146 140 129 116 102 74 59 78 77 67 55 41 17 9 127 217 222 226 152 140 143 36 346 256 277 287 265 279
323 321 316 314 313 296 278 264 255 242 234 230 227 229 233 237 234 225 215 211 205 187 165 156 164 185 195 196 216 239 167 171 162 167 157 156 153 147 140 117 105 76 87 81 74 64 54 39 22 54 39 55 47 35 356 161 118 276 270 265 259 260 257
311 309 308 309 308 302 289 271 251 238 228 225 215 212 213 226 218 209 219 215 207 191 175 169 145 187 213 205 208 227 214 167 168 163 160 161 153 142 133 132 125 109 95 85 80 75 67 59 51 74 65 68 50 31 346 335 251 232 259 261 277 281 281
298 298 300 301 298 294 294 283 260 251 235 223 218 208 186 156 132 105 80 41 346 177 183 170 157 176 205 208 205 141 4 125 59 168 162 154 141 128 120 113 109 108 96 90 83 81 88 95 85 83 90 77 75 360 276 258 344 286 279 295 295 291 290
284 285 287 292 292 285 282 283 273 249 231 211 212 213 215 201 179 160 146 116 96 66 43 104 145 164 167 185 161 131 110 111 130 197 158 145 132 128 133 128 118 112 100 93 85 74 65 66 90 106 101 119 187 252 270 280 256 288 293 281 281 284 293